[[{"header":{"parameterUnit":"m.s-1","parameterCategory":1,"la1":30.2991,"la2":30.254,"lo1":-89.0895,"lo2":-89.0444,"dy":0.0017,"dx":0.0017,"nx":28,"ny":28,"refTime":"2024-06-19T21:00:00:Z","depth":0,"parameterNumber":2,"parameterNumberName":"U-component_of_WINDS"},"data":[0,0,0,0,0,0,0,0,0,0,0,0,0,0,0,0,0,0,0,0,0,0,0,0,0,0,0,0,0,0,0,0,0,0,0,0,0,0,0,0,0,0,0,0,0,0,0,0,0,0,0,0,0,0,0,0,0,0,-7.8261,-7.826,0,-7.8189,-7.8188,-7.8187,-7.7932,-7.7926,-7.792,-7.7915,-7.7846,-7.785,-7.7853,0,0,0,0,0,0,0,0,0,0,0,0,0,-7.8184,-7.8187,-7.8261,-7.826,-7.8259,-7.8189,-7.8188,-7.8187,-7.7933,-7.7926,-7.7919,-7.7912,-7.7845,-7.7849,-7.7854,0,0,0,0,0,0,0,0,0,0,0,0,0,-7.8176,-7.8188,-7.8261,-7.8124,-7.8111,-7.8189,-7.8188,-7.8187,-7.7934,-7.7926,-7.7917,-7.7909,-7.7844,-7.7849,-7.7854,-7.8061,0,0,-7.7871,-7.7873,0,0,0,0,0,0,0,0,-7.8177,-7.8179,-7.8145,-7.8133,-7.8119,-7.806,-7.8135,-7.8145,-7.7936,-7.8002,-7.7915,-7.7904,-7.7925,-7.7923,-7.7929,-7.8058,-7.8055,-7.7871,-7.7874,-7.7877,-7.7878,0,0,0,0,0,0,0,-7.8178,-7.8181,-7.8233,-7.8145,-7.8129,-7.8068,-7.8057,-7.8136,-7.8013,-7.7995,-7.7976,-7.7971,-7.7916,-7.7924,-7.7925,-7.8054,-7.7871,-7.7876,-7.7879,-7.7881,-7.8349,-7.8358,0,0,0,0,0,0,-7.8197,-7.8183,-7.8235,-7.823,-7.8127,-7.8076,-7.8064,-7.8088,-7.8011,-7.7991,-7.7979,-7.7959,-7.7919,-7.7919,-7.7922,-7.8157,-7.7877,-7.7882,-7.7885,-7.834,-7.8351,-7.8361,0,0,0,0,0,0,-7.8196,-7.8204,-7.8238,-7.8201,-7.8201,-7.8087,-7.8116,-7.8091,-7.8098,-7.7999,-7.7976,-7.8009,-7.7912,-7.7914,-7.8028,-7.8151,-7.7884,-7.7889,-7.8329,-7.8343,-7.8356,-7.8631,0,0,0,0,0,0,-7.8195,-7.8205,-7.8281,-7.8205,-7.8204,-7.8344,-7.8123,-7.8096,-7.8108,-7.8082,-7.8021,-7.8003,-7.7906,-7.8021,-7.8033,-7.8153,-7.7893,-7.8317,-7.8335,-7.8351,-7.861,-7.8652,-7.8688,0,0,0,0,0,-7.8193,-7.8363,-7.8286,-7.8294,-7.8296,-7.8352,-7.8351,-7.8234,-7.8119,-7.8195,-7.8131,-7.8005,-7.8137,-7.8035,-7.8046,-7.817,-7.8309,-7.833,-7.835,-7.8592,-7.8644,-7.8687,0,0,0,0,0,0,-7.8459,-7.8351,-7.8264,-7.8414,-7.8394,-7.8308,-7.84,-7.8293,-7.8306,-7.8281,-7.8138,-7.8127,-7.8261,-7.8227,-7.8116,-7.8366,-7.8202,-7.8226,-7.8382,-7.843,-7.8469,-7.8472,-7.7898,0,0,0,0,0,-7.8535,-7.8587,-7.849,-7.8632,-7.8626,-7.8516,-7.8536,-7.8448,-7.8421,-7.8412,-7.8356,-7.8337,-7.8373,-7.8401,-7.8429,-7.8606,-7.8588,-7.8697,-7.8736,-7.8769,-7.879,-7.8879,-7.8926,-7.8429,-7.8429,-7.8428,0,0,-7.8692,-7.8639,-7.8681,-7.8684,-7.8657,-7.8716,-7.851,-7.8581,-7.8623,-7.8423,-7.8524,-7.8485,-7.8454,-7.86,-7.8661,-7.8576,-7.8924,-7.8795,-7.8822,-7.8825,-7.8905,-7.8952,-7.8994,-7.8443,-7.844,-7.8438,0,0,-7.9007,-7.8974,-7.9086,-7.9064,-7.9026,-7.8952,-7.898,-7.8911,-7.8876,-7.8976,-7.8827,-7.8877,-7.8944,-7.8927,-7.8928,-7.9239,-7.9123,-7.9254,-7.9456,-7.9545,-7.9584,-7.9618,-7.9727,-7.9768,-7.9276,-7.9277,-7.9277,0,-7.9207,-7.9286,-7.9159,-7.9238,-7.9243,-7.9065,-7.9178,-7.9164,-7.914,-7.9148,-7.9054,-7.9133,-7.91,-7.9238,-7.9314,-7.9322,-7.9349,-7.9257,-7.9589,-7.9621,-7.9651,-7.9753,-7.9795,-7.9292,-7.929,-7.9289,-7.9287,0,-7.9533,-7.9591,-7.9688,-7.9665,-7.9682,-7.9779,-7.9667,-7.9701,-7.9613,-7.955,-7.9655,-7.9609,-7.9625,-7.9652,-7.9568,-7.9779,-7.9727,-7.9614,-7.9444,-7.9716,-7.9809,-7.9848,-7.9315,-7.9309,-7.9304,-7.9301,0,0,-8.0009,-7.9916,-7.9953,-7.994,-7.9886,-7.9929,-8.002,-8.0033,-8.0063,-8.0054,-8.0125,-8.0187,-8.008,-8.0082,-7.9994,-8.0073,-8.032,-7.9949,-7.9946,-8.0017,-8.0548,-8.0631,-8.0679,-8.0245,-8.0252,-8.0258,-8.055,0,-8.0306,-8.045,-8.0338,-8.0503,-8.0555,-8.0387,-8.0465,-8.0443,-8.0387,-8.0424,-8.0364,-8.0408,-8.0267,-8.0266,-8.0337,-8.0275,-8.0425,-8.0253,-8.0309,-8.0313,-8.0317,-8.0728,-8.0815,-8.1093,-8.0586,-8.0592,-8.0596,0,-8.0669,-8.0673,-8.0843,-8.0777,-8.0794,-8.0867,-8.0869,-8.0907,-8.0879,-8.0833,-8.0836,-8.0728,-8.0812,-8.0651,-8.0766,-8.0652,-8.0669,-8.0643,-8.0651,-8.0648,-8.0468,-8.0733,-8.1179,-8.122,-8.0653,-8.0649,-8.0645,0,-8.0995,-8.1044,-8.115,-8.1145,-8.1073,-8.1127,-8.11,-8.1062,-8.1077,-8.1082,-8.109,-8.1107,-8.1115,-8.113,-8.103,-8.0922,-8.1158,-8.0988,-8.1122,-8.1125,-8.1175,-8.1173,-8.1627,-8.1195,-8.1194,-8.1193,-8.1192,0,-8.1335,-8.1445,-8.1295,-8.1361,-8.1479,-8.1352,-8.1474,-8.1429,-8.1398,-8.1453,-8.1312,-8.1367,-8.1233,-8.1276,-8.1199,-8.1305,-8.1311,-8.1277,-8.1254,-8.1287,-8.1291,-8.1293,-8.1269,-8.1204,-8.1202,-8.1199,-8.1198,0,-8.1717,-8.1622,-8.1726,-8.1649,-8.1633,-8.1723,-8.1658,-8.1716,-8.1652,-8.1724,-8.1734,-8.1635,-8.1677,-8.158,-8.1609,-8.1558,-8.1708,-8.1657,-8.1717,-8.17,-8.1838,-8.1825,-8.2306,-8.2361,-8.1898,-8.1903,-8.1907,0,-8.1938,-8.2017,-8.1949,-8.1974,-8.1954,-8.1998,-8.2012,-8.1892,-8.1913,-8.1887,-8.1949,-8.1979,-8.1996,-8.2073,-8.2004,-8.2026,-8.1972,-8.214,-8.1975,-8.2005,-8.1971,-8.1965,-8.1972,-8.2172,-8.2178,-8.2183,-8.2187,0,-8.2339,-8.2287,-8.2312,-8.2321,-8.2342,-8.2344,-8.2336,-8.2366,-8.2238,-8.2269,-8.2309,-8.2323,-8.2353,-8.2384,-8.2391,-8.2365,-8.2256,-8.224,-8.2271,-8.2303,-8.2333,-8.2315,-8.1805,-8.2228,-8.2224,-8.2221,-8.2219,-8.2217,-8.2643,-8.2706,-8.2667,-8.2699,-8.2681,-8.2677,-8.2727,-8.2669,-8.27,-8.2712,-8.2641,-8.2698,-8.2668,-8.2665,-8.2651,-8.2694,-8.2619,-8.2665,-8.2676,-8.2689,-8.2709,-8.233,-8.2696,-8.2695,-8.2693,-8.2692,-8.2691,0,-8.3033,-8.3,-8.3032,-8.3024,-8.305,-8.2944,-8.2931,-8.296,-8.301,-8.2991,-8.3011,-8.3058,-8.3089,-8.3024,-8.3045,-8.3092,-8.3043,-8.3102,-8.3094,-8.309,-8.2778,-8.2746,-8.3141,-8.3141,-8.3141,-8.3141,-8.3141,-8.3141,-8.3239,-8.3338,-8.3283,-8.3373,-8.3339,-8.3391,-8.3392,-8.3389,-8.3372,-8.343,-8.3454,-8.3411,-8.3374,-8.3391,-8.3416,-8.3396,-8.3409,-8.3485,-8.3448,-8.3156,-8.3112,-8.307,-8.304,-8.349,-8.349,-8.3756,-8.3758,-8.376]},{"header":{"parameterUnit":"m.s-1","parameterCategory":1,"la1":30.2991,"la2":30.254,"lo1":-89.0895,"lo2":-89.0444,"dy":0.0017,"dx":0.0017,"nx":28,"ny":28,"refTime":"2024-06-19T21:00:00:Z","depth":0,"parameterNumber":3,"parameterNumberName":"V-component_of_WINDS"},"data":[0,0,0,0,0,0,0,0,0,0,0,0,0,0,0,0,0,0,0,0,0,0,0,0,0,0,0,0,0,0,0,0,0,0,0,0,0,0,0,0,0,0,0,0,0,0,0,0,0,0,0,0,0,0,0,0,0,0,0.829,0.829,0,0.8277,0.8277,0.8277,0.8233,0.8232,0.8231,0.823,0.8215,0.8215,0.8216,0,0,0,0,0,0,0,0,0,0,0,0,0,0.8276,0.8277,0.829,0.829,0.8289,0.8277,0.8277,0.8277,0.8233,0.8232,0.8231,0.823,0.8215,0.8215,0.8216,0,0,0,0,0,0,0,0,0,0,0,0,0,0.8275,0.8277,0.829,0.8266,0.8264,0.8277,0.8277,0.8277,0.8234,0.8232,0.8231,0.8229,0.8214,0.8215,0.8216,0.825,0,0,0.8218,0.8218,0,0,0,0,0,0,0,0,0.8275,0.8275,0.827,0.8268,0.8266,0.8255,0.8267,0.8268,0.8234,0.8245,0.823,0.8229,0.8229,0.8229,0.8229,0.8249,0.8248,0.8218,0.8219,0.8219,0.8219,0,0,0,0,0,0,0,0.8275,0.8276,0.8285,0.827,0.8267,0.8257,0.8255,0.8267,0.8245,0.8244,0.8241,0.824,0.8228,0.8229,0.8229,0.8248,0.8218,0.8219,0.8219,0.822,0.8298,0.83,0,0,0,0,0,0,0.8279,0.8276,0.8285,0.8284,0.8267,0.8258,0.8256,0.826,0.8245,0.8242,0.8241,0.8238,0.8228,0.8228,0.8228,0.8269,0.8219,0.822,0.822,0.8297,0.8299,0.8301,0,0,0,0,0,0,0.8279,0.828,0.8286,0.8279,0.8279,0.826,0.8265,0.8261,0.8261,0.8243,0.8239,0.8246,0.8227,0.8227,0.8246,0.8267,0.822,0.8221,0.8295,0.8297,0.83,0.8349,0,0,0,0,0,0,0.8278,0.828,0.8292,0.828,0.828,0.8303,0.8266,0.8261,0.8263,0.8259,0.8247,0.8243,0.8226,0.8245,0.8246,0.8268,0.8221,0.8293,0.8296,0.8299,0.8345,0.8353,0.8359,0,0,0,0,0,0.8278,0.8305,0.8293,0.8295,0.8295,0.8305,0.8304,0.8285,0.8265,0.8278,0.8267,0.8244,0.8265,0.8247,0.8248,0.827,0.8291,0.8295,0.8299,0.8342,0.8351,0.8359,0,0,0,0,0,0,0.8319,0.8303,0.8289,0.8314,0.8311,0.8297,0.8312,0.8294,0.8296,0.8292,0.8267,0.8264,0.8287,0.828,0.8261,0.8304,0.8275,0.8279,0.8307,0.8316,0.8323,0.8323,0.8222,0,0,0,0,0,0.8331,0.8341,0.8326,0.8349,0.8349,0.8331,0.8335,0.832,0.8316,0.8314,0.8304,0.83,0.8307,0.8311,0.8315,0.8345,0.8342,0.8361,0.8368,0.8374,0.8377,0.8395,0.8403,0.8313,0.8313,0.8313,0,0,0.8355,0.8348,0.8355,0.8357,0.8354,0.8365,0.833,0.8342,0.835,0.8315,0.8333,0.8326,0.8321,0.8346,0.8356,0.8341,0.8402,0.8378,0.8383,0.8383,0.84,0.8408,0.8416,0.8315,0.8315,0.8314,0,0,0.8406,0.8401,0.8421,0.8419,0.8414,0.8403,0.8408,0.8398,0.8393,0.841,0.8385,0.8395,0.8405,0.8403,0.8404,0.8459,0.8438,0.8461,0.8497,0.8514,0.8521,0.8527,0.8548,0.8556,0.8465,0.8465,0.8465,0,0.8436,0.8452,0.8433,0.8448,0.845,0.8422,0.8442,0.8441,0.8438,0.844,0.8424,0.8439,0.8433,0.8458,0.8473,0.8473,0.8479,0.8461,0.8522,0.8528,0.8533,0.8553,0.8561,0.8467,0.8467,0.8467,0.8467,0,0.8491,0.8502,0.8519,0.8519,0.8523,0.8541,0.8525,0.8532,0.8519,0.8509,0.8529,0.8522,0.8526,0.8531,0.8516,0.8555,0.8546,0.8527,0.8496,0.8545,0.8563,0.857,0.8472,0.8471,0.847,0.8469,0,0,0.8562,0.8556,0.8562,0.8563,0.8558,0.8567,0.8585,0.859,0.8597,0.8597,0.8612,0.8624,0.8606,0.8607,0.8593,0.8608,0.8654,0.8586,0.8586,0.86,0.8699,0.8714,0.8722,0.8642,0.8643,0.8644,0.8699,0,0.8611,0.8641,0.8626,0.8658,0.867,0.8645,0.8661,0.866,0.8653,0.8662,0.8654,0.8663,0.8639,0.864,0.8654,0.8646,0.8674,0.8641,0.8655,0.8656,0.8657,0.8731,0.8746,0.8799,0.8706,0.8707,0.8708,0,0.867,0.8676,0.871,0.8706,0.871,0.8725,0.873,0.8739,0.8739,0.8733,0.8736,0.8719,0.8737,0.8709,0.8734,0.8712,0.8718,0.8715,0.8716,0.8716,0.8684,0.8734,0.8815,0.8823,0.8719,0.8718,0.8717,0,0.8721,0.8737,0.8759,0.8761,0.8757,0.8768,0.8767,0.8765,0.8771,0.8776,0.878,0.8786,0.879,0.8796,0.8782,0.8762,0.881,0.8779,0.8805,0.8806,0.8815,0.8815,0.8899,0.8819,0.8819,0.8819,0.8819,0,0.8776,0.8798,0.8783,0.8796,0.8821,0.8805,0.8829,0.8826,0.8825,0.8839,0.8818,0.8831,0.8812,0.8823,0.8812,0.8836,0.8837,0.8833,0.883,0.8835,0.8836,0.8837,0.8833,0.8821,0.882,0.882,0.882,0,0.8836,0.8826,0.885,0.8846,0.8846,0.8864,0.8861,0.8874,0.8867,0.8884,0.8888,0.8877,0.8889,0.8877,0.8888,0.8881,0.8913,0.8904,0.8913,0.8911,0.8938,0.8936,0.9025,0.9037,0.895,0.8951,0.8952,0,0.8872,0.8888,0.8887,0.8896,0.8897,0.891,0.8916,0.8902,0.8909,0.8913,0.8926,0.8938,0.8946,0.8968,0.8961,0.897,0.8962,0.8993,0.8963,0.8968,0.8963,0.8962,0.8964,0.8998,0.8999,0.9,0.9001,0,0.8936,0.8932,0.8942,0.8953,0.8962,0.8968,0.8973,0.8981,0.8967,0.8977,0.8991,0.8998,0.9012,0.9023,0.9032,0.903,0.9014,0.9011,0.9018,0.9022,0.9027,0.9026,0.893,0.9008,0.9008,0.9007,0.9007,0.9006,0.8985,0.9,0.9003,0.9016,0.9019,0.9026,0.9039,0.9035,0.9047,0.9058,0.9049,0.9066,0.9069,0.9078,0.908,0.9093,0.908,0.9089,0.9092,0.9094,0.9099,0.9026,0.9094,0.9094,0.9094,0.9094,0.9094,0,0.9049,0.9051,0.9064,0.9073,0.9085,0.907,0.9076,0.9086,0.9102,0.9107,0.9117,0.9134,0.9147,0.9143,0.9154,0.9166,0.9159,0.9169,0.9168,0.9168,0.9109,0.9103,0.9175,0.9175,0.9175,0.9175,0.9175,0.9175,0.9084,0.9109,0.9106,0.9133,0.9134,0.9152,0.9157,0.9164,0.9167,0.9188,0.92,0.9198,0.9199,0.9211,0.9223,0.9221,0.9227,0.924,0.9236,0.918,0.9172,0.9165,0.9158,0.9241,0.9242,0.9294,0.9295,0.9295]}]]